Wind_Speed
13 12 12 12 12 11 11 10 9 9 9 9 9 9 9 10 11 11 12 13 13 13 12 12 12 11 11 11 10 9 8 7 6 6 5 4 4 4 4 3 3 3 3
15 13 13 13 13 13 12 11 11 11 10 10 10 10 10 10 10 11 13 14 14 15 14 13 13 12 12 12 12 11 10 9 8 7 7 7 6 6 5 4 4 4 4
15 13 13 13 13 13 13 13 12 12 11 11 11 11 11 11 10 11 12 14 15 15 15 15 14 13 13 13 13 13 12 11 10 10 9 9 8 7 7 6 6 5 5
16 14 13 14 14 14 14 12 13 13 13 12 12 11 12 12 12 12 12 14 14 14 15 16 16 15 14 14 14 14 13 13 12 11 11 10 10 10 8 8 7 6 6
16 15 14 14 14 14 13 13 14 14 14 14 13 13 13 12 12 12 13 14 15 15 15 17 17 17 16 16 16 15 15 14 13 13 12 12 12 11 11 10 9 9 8
16 15 14 14 14 13 13 14 14 15 15 14 14 14 14 14 13 13 14 14 15 15 15 16 17 18 18 17 17 17 16 15 15 15 15 14 13 13 12 12 12 11 10
16 15 14 14 14 14 14 15 15 15 15 15 14 14 14 14 14 14 14 15 15 16 16 16 17 18 19 19 18 18 18 17 16 16 16 16 15 15 14 14 14 13 13
18 17 15 14 15 15 15 16 16 16 16 15 15 14 14 14 14 14 15 15 16 16 17 17 17 18 19 20 20 20 19 19 18 18 18 18 18 17 16 16 16 15 15
18 16 15 15 15 15 16 16 16 16 16 15 15 14 14 14 14 15 16 15 16 16 17 17 18 18 19 20 21 21 21 21 21 20 20 19 20 19 18 19 18 18 17
16 15 15 16 16 16 16 17 17 16 16 16 15 15 15 15 15 16 16 16 16 17 17 18 19 19 19 21 21 21 22 22 22 21 20 20 20 20 20 20 20 20 20
17 16 16 16 16 16 16 16 16 16 16 15 15 15 15 14 15 15 15 16 15 15 17 18 19 19 19 20 21 21 22 22 22 21 21 21 21 22 22 22 22 21 22
17 16 16 16 16 15 16 16 16 16 16 15 15 15 15 15 15 16 15 15 16 17 17 17 18 18 19 20 20 20 21 21 22 22 22 22 22 22 23 23 23 24 24
16 16 15 15 15 15 15 15 15 16 16 16 16 16 15 15 15 16 16 16 16 16 17 17 18 19 20 20 21 21 21 21 22 22 23 24 24 24 24 24 24 25 25
15 15 14 15 15 14 14 15 15 16 16 16 16 15 15 15 16 16 16 16 17 17 17 17 18 19 19 20 21 22 21 22 22 23 24 24 24 25 25 26 26 27 27
15 15 15 15 15 15 15 15 15 15 15 15 16 15 15 15 16 16 16 17 17 17 18 18 18 18 19 19 20 20 21 21 22 23 24 25 25 26 27 27 28 28 28
15 15 15 15 15 15 14 14 14 14 14 14 14 14 14 14 15 16 17 17 17 17 17 18 18 19 19 20 20 20 21 22 22 23 24 25 26 27 27 28 29 30 31
16 16 16 16 15 15 15 14 14 14 13 12 13 13 14 14 14 15 15 15 15 16 16 16 17 18 19 19 20 20 22 22 22 23 24 25 25 26 28 29 30 32 32
18 17 17 16 15 15 14 14 14 13 12 12 12 13 13 13 14 14 15 15 15 15 15 16 17 17 17 18 20 21 21 21 22 23 25 25 26 27 28 29 30 32 32
19 18 17 16 15 15 15 14 14 14 14 14 13 14 14 14 14 15 15 15 15 15 15 15 16 16 16 17 19 20 20 21 22 24 24 26 27 28 29 29 30 32 33
19 18 17 17 16 15 15 15 14 14 14 15 15 14 14 14 14 15 15 15 15 15 15 15 15 15 16 17 18 19 20 21 23 24 25 26 27 29 30 30 31 32 32
20 19 18 17 17 16 16 15 15 15 15 15 15 15 15 15 15 15 15 16 16 16 15 16 16 16 17 18 19 20 21 23 24 25 26 27 28 29 31 31 31 32 32
20 20 19 18 18 17 17 17 17 16 16 16 16 16 16 15 15 15 16 16 16 15 16 16 16 17 18 18 19 20 22 23 24 25 26 27 28 29 30 30 31 31 30
21 20 20 19 19 19 19 18 18 17 17 17 17 17 16 16 16 16 16 16 16 16 17 17 18 18 18 19 20 20 21 22 23 24 24 25 26 26 27 29 30 30 30
21 21 20 20 19 19 19 19 19 18 18 17 17 17 17 17 17 18 17 17 17 17 18 18 19 19 19 20 21 21 22 22 23 24 25 26 27 27 28 29 29 30 32
22 21 20 20 20 20 19 19 19 19 18 18 18 18 18 18 18 18 18 18 18 19 19 20 20 20 20 21 22 23 23 24 25 26 27 27 28 28 29 31 32 33 34
22 22 21 20 20 21 21 21 20 19 19 19 18 19 19 19 18 18 18 18 18 18 19 20 20 21 22 23 24 25 25 26 26 27 28 29 30 31 33 34 35 36 37
Wind_Direction
278 283 290 296 299 298 296 298 295 295 289 285 283 276 274 272 266 259 251 246 243 244 247 250 249 253 254 250 247 242 243 245 248 249 248 251 258 264 267 266 265 272 277
272 279 285 289 291 293 292 292 291 295 290 284 280 276 273 271 265 258 254 248 246 248 250 249 249 251 251 247 245 243 243 246 251 254 253 254 259 263 264 264 270 276 277
271 275 281 284 285 287 287 286 287 293 293 284 281 277 274 274 268 261 254 246 244 247 249 250 249 249 248 246 244 243 246 249 254 256 256 258 262 265 266 268 275 274 271
272 276 279 281 283 282 282 281 284 289 291 287 284 278 274 272 267 260 258 252 248 247 247 249 249 249 247 244 241 241 246 250 253 257 259 260 262 260 262 268 270 271 273
270 273 275 277 281 278 278 281 285 287 288 288 286 280 277 273 270 263 261 258 254 251 251 251 249 248 245 243 241 242 246 249 253 257 261 262 262 263 262 264 264 266 273
270 269 271 274 278 275 278 282 285 285 286 284 282 278 276 275 273 265 258 258 257 254 254 254 250 248 246 244 242 243 245 248 253 257 260 262 263 263 263 264 267 270 272
270 270 271 272 276 275 280 282 282 283 285 285 283 277 275 273 270 265 259 257 256 256 253 251 251 250 248 246 245 245 247 250 254 259 260 260 261 262 262 264 268 271 272
266 267 269 271 273 276 281 281 280 281 283 284 282 278 273 269 268 265 261 257 256 257 254 253 251 250 250 248 247 247 250 253 256 259 260 260 260 261 261 264 266 269 271
260 263 266 269 271 275 280 281 279 281 282 282 280 276 274 271 267 265 262 263 260 258 255 256 250 250 250 247 247 249 251 252 256 259 260 260 259 260 260 263 265 267 269
264 265 266 269 271 275 279 280 278 278 278 279 278 275 271 270 269 266 264 262 262 260 258 255 252 252 251 248 249 250 252 252 254 258 259 260 260 260 261 263 265 268 268
266 265 265 266 269 273 278 281 278 277 276 275 275 273 272 269 266 265 265 261 261 261 260 260 257 254 253 251 251 252 252 253 255 257 258 259 260 260 260 262 265 267 269
265 265 266 269 269 272 275 278 277 277 274 273 275 275 272 268 264 264 264 262 263 263 260 260 259 255 253 251 250 250 252 253 254 256 257 258 259 261 262 263 265 267 268
260 261 262 268 273 275 276 278 276 276 273 271 274 275 272 268 265 265 262 262 265 263 260 259 260 256 255 253 252 253 253 253 254 256 258 259 261 262 263 263 265 267 269
258 259 262 267 271 274 278 281 280 277 276 272 272 274 272 270 268 266 263 262 265 264 263 261 262 258 255 256 256 256 255 255 256 258 259 261 263 264 264 265 267 268 271
256 260 265 267 270 273 279 283 282 280 278 273 270 270 271 273 270 268 267 265 264 265 265 263 260 258 257 259 259 258 256 256 258 258 259 261 262 264 266 267 268 269 271
257 261 265 267 269 271 276 282 284 280 277 277 275 275 273 273 273 272 271 267 265 266 267 265 260 260 261 262 264 261 259 258 260 263 263 264 264 266 268 269 270 271 273
258 262 265 269 271 272 276 279 280 278 275 279 280 278 275 277 276 276 276 273 270 268 268 266 264 264 263 264 264 263 263 262 265 268 268 267 269 271 271 272 273 274 275
257 261 265 268 270 272 273 274 276 277 278 283 281 278 279 279 279 277 278 277 275 273 273 269 269 269 267 268 268 265 265 265 268 270 271 271 272 273 272 274 275 277 277
257 260 264 268 270 271 271 273 275 277 280 283 281 278 278 281 282 279 279 280 279 276 276 275 273 271 270 271 271 267 266 268 270 270 272 273 273 276 276 278 280 281 281
257 260 263 267 270 271 272 272 272 275 278 281 282 281 279 281 282 282 282 279 277 277 276 275 273 275 276 277 275 270 270 271 272 272 274 274 277 279 281 283 284 285 285
255 258 261 265 267 270 273 272 272 275 276 278 281 281 281 282 283 283 282 280 278 276 275 275 274 277 279 278 277 275 274 274 276 277 278 279 280 282 284 285 286 287 287
253 257 259 262 265 268 271 273 273 274 275 276 279 280 281 282 282 281 281 281 279 276 276 276 277 278 280 281 283 283 282 279 279 280 282 284 285 286 287 287 289 290 290
254 257 258 261 264 266 269 273 275 275 274 275 276 278 280 280 280 282 282 279 278 280 281 281 280 281 282 284 285 287 287 286 284 285 287 289 291 291 291 292 292 292 291
255 258 258 261 264 265 268 272 274 274 275 276 276 276 278 280 282 283 282 281 279 279 279 281 283 283 284 285 288 291 293 293 291 290 290 290 291 292 293 293 293 293 293
254 257 259 261 263 264 267 272 274 273 275 277 276 276 276 278 282 284 284 283 282 282 283 283 283 284 286 288 290 291 292 293 293 292 291 291 291 292 292 293 294 295 294
255 258 260 262 264 266 268 271 275 274 275 276 275 275 277 278 280 281 284 285 286 285 285 285 285 286 289 291 292 293 293 293 293 293 293 292 292 293 294 294 294 294 294
Height
5883 5884 5884 5884 5884 5884 5884 5884 5884 5884 5883 5883 5883 5883 5884 5885 5885 5886 5888 5890 5891 5893 5894 5896 5896 5898 5899 5900 5901 5902 5903 5904 5905 5905 5906 5906 5906 5907 5907 5907 5907 5908 5908
5881 5882 5882 5882 5882 5882 5882 5882 5882 5882 5881 5881 5881 5881 5882 5882 5883 5884 5886 5887 5889 5890 5892 5894 5895 5896 5897 5898 5900 5901 5902 5903 5904 5904 5905 5905 5906 5906 5906 5906 5907 5907 5907
5878 5879 5879 5879 5880 5880 5880 5880 5880 5880 5879 5879 5879 5879 5879 5880 5881 5882 5883 5884 5886 5887 5889 5891 5892 5893 5894 5896 5898 5899 5900 5901 5902 5903 5903 5904 5904 5904 5905 5905 5905 5905 5906
5875 5876 5877 5877 5877 5877 5877 5877 5877 5877 5877 5876 5876 5876 5877 5877 5878 5879 5880 5882 5883 5884 5886 5888 5889 5890 5892 5893 5895 5896 5898 5899 5900 5901 5901 5902 5902 5903 5903 5904 5904 5904 5904
5872 5872 5873 5874 5874 5874 5874 5875 5874 5874 5874 5873 5873 5873 5874 5875 5875 5876 5877 5879 5880 5882 5883 5884 5886 5887 5889 5891 5892 5894 5895 5897 5898 5899 5899 5899 5900 5900 5901 5902 5902 5902 5902
5869 5869 5870 5870 5871 5871 5871 5872 5871 5871 5870 5870 5870 5871 5871 5872 5872 5873 5874 5875 5877 5878 5880 5881 5882 5884 5886 5888 5889 5891 5892 5893 5895 5896 5897 5897 5897 5898 5898 5899 5899 5900 5900
5865 5866 5867 5867 5867 5867 5868 5868 5868 5868 5867 5867 5867 5867 5868 5868 5869 5870 5871 5872 5874 5875 5876 5878 5879 5881 5882 5884 5886 5887 5889 5890 5891 5892 5893 5894 5894 5895 5895 5896 5897 5897 5897
5862 5862 5863 5864 5864 5864 5864 5864 5864 5864 5864 5864 5864 5864 5864 5865 5866 5866 5867 5869 5870 5872 5873 5874 5875 5877 5878 5880 5882 5884 5885 5886 5887 5888 5889 5890 5891 5891 5892 5893 5893 5893 5894
5858 5858 5860 5861 5861 5861 5861 5861 5861 5861 5860 5860 5860 5861 5861 5862 5862 5863 5864 5865 5867 5868 5869 5870 5871 5872 5874 5875 5877 5879 5881 5882 5883 5884 5885 5886 5886 5887 5888 5888 5889 5890 5890
5854 5855 5856 5857 5858 5858 5858 5858 5857 5857 5857 5857 5857 5857 5858 5858 5859 5860 5861 5862 5863 5864 5865 5865 5867 5868 5869 5871 5873 5874 5876 5877 5878 5879 5880 5881 5882 5883 5883 5884 5885 5885 5885
5853 5853 5853 5854 5855 5855 5855 5854 5854 5854 5854 5854 5854 5854 5854 5854 5855 5856 5857 5858 5859 5860 5860 5861 5862 5863 5864 5866 5867 5869 5871 5872 5873 5875 5876 5876 5877 5878 5878 5879 5879 5880 5880
5849 5850 5851 5851 5851 5851 5851 5851 5851 5851 5850 5850 5851 5851 5850 5851 5852 5853 5854 5854 5855 5856 5856 5857 5857 5858 5860 5861 5863 5864 5866 5867 5868 5869 5870 5871 5872 5872 5873 5873 5874 5874 5874
5846 5846 5847 5848 5848 5848 5848 5848 5847 5847 5847 5847 5847 5847 5847 5847 5848 5849 5849 5850 5851 5852 5852 5852 5853 5854 5856 5857 5858 5859 5860 5862 5863 5864 5865 5866 5866 5867 5867 5868 5868 5868 5868
5843 5843 5844 5845 5845 5845 5845 5845 5844 5844 5844 5844 5844 5844 5844 5844 5844 5845 5845 5846 5847 5848 5848 5848 5849 5850 5851 5852 5853 5854 5855 5856 5857 5858 5859 5860 5860 5861 5861 5861 5862 5862 5862
5841 5841 5842 5842 5842 5843 5843 5842 5841 5841 5840 5840 5840 5840 5840 5840 5841 5841 5842 5842 5843 5843 5844 5844 5845 5846 5847 5847 5848 5849 5850 5851 5852 5852 5853 5854 5854 5854 5855 5855 5855 5855 5855
5838 5838 5839 5839 5839 5840 5840 5839 5838 5837 5837 5837 5837 5837 5837 5837 5837 5837 5838 5838 5838 5839 5839 5840 5840 5841 5842 5842 5843 5844 5845 5845 5846 5846 5847 5848 5848 5848 5848 5848 5848 5848 5847
5835 5835 5836 5836 5836 5836 5836 5836 5835 5835 5834 5834 5834 5834 5834 5834 5834 5834 5834 5834 5834 5835 5835 5836 5836 5837 5837 5838 5838 5839 5839 5840 5840 5841 5841 5841 5841 5841 5841 5841 5841 5840 5839
5831 5832 5833 5833 5833 5833 5833 5833 5832 5832 5832 5832 5831 5831 5831 5831 5831 5831 5831 5831 5831 5831 5832 5832 5832 5833 5833 5833 5833 5834 5834 5835 5835 5835 5835 5835 5835 5835 5834 5833 5833 5832 5831
5828 5829 5829 5830 5830 5830 5830 5830 5829 5829 5829 5829 5829 5829 5828 5828 5828 5828 5828 5828 5828 5828 5828 5828 5828 5828 5829 5829 5829 5828 5829 5829 5829 5829 5829 5829 5829 5828 5827 5826 5825 5824 5823
5824 5825 5825 5826 5826 5827 5827 5826 5826 5826 5826 5826 5826 5826 5825 5825 5825 5825 5824 5824 5824 5824 5824 5824 5824 5825 5824 5824 5824 5824 5824 5824 5823 5823 5823 5822 5822 5821 5820 5819 5818 5816 5814
5819 5820 5821 5822 5823 5823 5823 5823 5823 5823 5823 5823 5823 5823 5822 5822 5822 5821 5821 5820 5820 5821 5821 5821 5821 5821 5820 5820 5819 5819 5818 5818 5817 5817 5816 5815 5815 5814 5813 5811 5810 5808 5806
5814 5816 5817 5818 5818 5819 5819 5819 5819 5819 5820 5820 5819 5819 5819 5819 5818 5818 5817 5817 5817 5817 5817 5817 5817 5817 5816 5815 5814 5814 5813 5812 5811 5810 5809 5809 5808 5806 5805 5803 5801 5800 5798
5810 5811 5812 5813 5814 5814 5815 5815 5815 5815 5815 5815 5815 5815 5815 5815 5814 5814 5814 5813 5813 5813 5813 5813 5813 5812 5811 5811 5810 5809 5808 5806 5805 5804 5803 5802 5801 5799 5797 5795 5793 5791 5789
5805 5806 5807 5808 5809 5809 5810 5810 5810 5811 5811 5811 5811 5811 5811 5811 5810 5810 5809 5809 5809 5809 5809 5808 5808 5807 5806 5806 5805 5804 5802 5801 5799 5798 5797 5795 5794 5792 5790 5788 5785 5783 5781
5800 5801 5802 5803 5804 5805 5805 5806 5806 5806 5806 5806 5806 5806 5806 5806 5806 5805 5805 5805 5804 5804 5803 5803 5802 5802 5801 5800 5799 5798 5796 5794 5793 5791 5790 5788 5786 5784 5782 5779 5777 5774 5771
5795 5796 5797 5798 5799 5800 5800 5801 5801 5801 5801 5801 5801 5801 5801 5801 5801 5801 5800 5800 5799 5799 5798 5798 5797 5796 5795 5794 5793 5791 5789 5788 5786 5784 5782 5780 5778 5776 5773 5770 5767 5764 5761